Year,Month,Day,Hour,Minute,Value (Times are PST for temperature in C)
2014,07,13,00,00,18.40
2014,07,13,00,01,18.40
2014,07,13,00,02,18.40
2014,07,13,00,03,18.40
2014,07,13,00,04,18.40
2014,07,13,00,05,18.30
2014,07,13,00,06,18.30
2014,07,13,00,07,18.30
2014,07,13,00,08,18.30
2014,07,13,00,09,18.30
2014,07,13,00,10,18.20
2014,07,13,00,11,18.20
2014,07,13,00,12,18.20
2014,07,13,00,13,18.10
2014,07,13,00,14,18.10
2014,07,13,00,15,18.10
2014,07,13,00,16,18.10
2014,07,13,00,17,18.10
2014,07,13,00,18,18.00
2014,07,13,00,19,18.00
2014,07,13,00,20,17.90
2014,07,13,00,21,17.90
2014,07,13,00,22,17.90
2014,07,13,00,23,17.90
2014,07,13,00,24,17.80
2014,07,13,00,25,17.80
2014,07,13,00,26,17.80
2014,07,13,00,27,17.80
2014,07,13,00,28,17.70
2014,07,13,00,29,17.70
2014,07,13,00,30,17.70
2014,07,13,00,31,17.70
2014,07,13,00,32,17.70
2014,07,13,00,33,17.60
2014,07,13,00,34,17.60
2014,07,13,00,35,17.60
2014,07,13,00,36,17.60
2014,07,13,00,37,17.60
2014,07,13,00,38,17.50
2014,07,13,00,39,17.50
2014,07,13,00,40,17.50
2014,07,13,00,41,17.40
2014,07,13,00,42,17.40
2014,07,13,00,43,17.40
2014,07,13,00,44,17.40
2014,07,13,00,45,17.30
2014,07,13,00,46,17.30
2014,07,13,00,47,17.30
2014,07,13,00,48,17.30
2014,07,13,00,49,17.20
2014,07,13,00,50,17.20
2014,07,13,00,51,17.20
2014,07,13,00,52,17.20
2014,07,13,00,53,17.20
2014,07,13,00,54,17.20
2014,07,13,00,55,17.20
2014,07,13,00,56,17.20
2014,07,13,00,57,17.20
2014,07,13,00,58,17.20
2014,07,13,00,59,17.20
2014,07,13,01,00,17.20
2014,07,13,01,01,17.10
2014,07,13,01,02,17.10
2014,07,13,01,03,17.10
2014,07,13,01,04,17.10
2014,07,13,01,05,17.00
2014,07,13,01,06,17.00
2014,07,13,01,07,17.00
2014,07,13,01,08,17.00
2014,07,13,01,09,16.90
2014,07,13,01,10,16.90
2014,07,13,01,11,16.90
2014,07,13,01,12,16.80
2014,07,13,01,13,16.80
2014,07,13,01,14,16.80
2014,07,13,01,15,16.80
2014,07,13,01,16,16.80
2014,07,13,01,17,16.70
2014,07,13,01,18,16.70
2014,07,13,01,19,16.70
2014,07,13,01,20,16.70
2014,07,13,01,21,16.70
2014,07,13,01,22,16.60
2014,07,13,01,23,16.60
2014,07,13,01,24,16.60
2014,07,13,01,25,16.60
2014,07,13,01,26,16.50
2014,07,13,01,27,16.50
2014,07,13,01,28,16.50
2014,07,13,01,29,16.50
2014,07,13,01,30,16.50
2014,07,13,01,31,16.50
2014,07,13,01,32,16.50
2014,07,13,01,33,16.50
2014,07,13,01,34,16.50
2014,07,13,01,35,16.40
2014,07,13,01,36,16.40
2014,07,13,01,37,16.40
2014,07,13,01,38,16.40
2014,07,13,01,39,16.40
2014,07,13,01,40,16.40
2014,07,13,01,41,16.30
2014,07,13,01,42,16.30
2014,07,13,01,43,16.30
2014,07,13,01,44,16.30
2014,07,13,01,45,16.30
2014,07,13,01,46,16.30
2014,07,13,01,47,16.30
2014,07,13,01,48,16.20
2014,07,13,01,49,16.20
2014,07,13,01,50,16.20
2014,07,13,01,51,16.20
2014,07,13,01,52,16.20
2014,07,13,01,53,16.20
2014,07,13,01,54,16.10
2014,07,13,01,55,16.10
2014,07,13,01,56,16.10
2014,07,13,01,57,16.10
2014,07,13,01,58,16.00
2014,07,13,01,59,16.00
2014,07,13,02,00,16.00
2014,07,13,02,01,15.90
2014,07,13,02,02,15.90
2014,07,13,02,03,15.90
2014,07,13,02,04,15.90
2014,07,13,02,05,15.90
2014,07,13,02,06,15.90
2014,07,13,02,07,15.80
2014,07,13,02,08,15.80
2014,07,13,02,09,15.80
2014,07,13,02,10,15.80
2014,07,13,02,11,15.80
2014,07,13,02,12,15.80
2014,07,13,02,13,15.80
2014,07,13,02,14,15.80
2014,07,13,02,15,15.70
2014,07,13,02,16,15.70
2014,07,13,02,17,15.70
2014,07,13,02,18,15.70
2014,07,13,02,19,15.70
2014,07,13,02,20,15.70
2014,07,13,02,21,15.70
2014,07,13,02,22,15.70
2014,07,13,02,23,15.70
2014,07,13,02,24,15.60
2014,07,13,02,25,15.60
2014,07,13,02,26,15.60
2014,07,13,02,27,15.60
2014,07,13,02,28,15.60
2014,07,13,02,29,15.60
2014,07,13,02,30,15.60
2014,07,13,02,31,15.60
2014,07,13,02,32,15.50
2014,07,13,02,33,15.50
2014,07,13,02,34,15.50
2014,07,13,02,35,15.50
2014,07,13,02,36,15.50
2014,07,13,02,37,15.50
2014,07,13,02,38,15.40
2014,07,13,02,39,15.40
2014,07,13,02,40,15.40
2014,07,13,02,41,15.40
2014,07,13,02,42,15.40
2014,07,13,02,43,15.40
2014,07,13,02,44,15.40
2014,07,13,02,45,15.30
2014,07,13,02,46,15.30
2014,07,13,02,47,15.30
2014,07,13,02,48,15.30
2014,07,13,02,49,15.30
2014,07,13,02,50,15.30
2014,07,13,02,51,15.30
2014,07,13,02,52,15.30
2014,07,13,02,53,15.30
2014,07,13,02,54,15.30
2014,07,13,02,55,15.30
2014,07,13,02,56,15.30
2014,07,13,02,57,15.20
2014,07,13,02,58,15.20
2014,07,13,02,59,15.20
2014,07,13,03,00,15.20
2014,07,13,03,01,15.20
2014,07,13,03,02,15.20
2014,07,13,03,03,15.20
2014,07,13,03,04,15.20
2014,07,13,03,05,15.20
2014,07,13,03,06,15.10
2014,07,13,03,07,15.10
2014,07,13,03,08,15.10
2014,07,13,03,09,15.10
2014,07,13,03,10,15.10
2014,07,13,03,11,15.00
2014,07,13,03,12,15.00
2014,07,13,03,13,15.00
2014,07,13,03,14,15.00
2014,07,13,03,15,14.90
2014,07,13,03,16,14.90
2014,07,13,03,17,14.90
2014,07,13,03,18,14.90
2014,07,13,03,19,14.90
2014,07,13,03,20,14.80
2014,07,13,03,21,14.80
2014,07,13,03,22,14.80
2014,07,13,03,23,14.80
2014,07,13,03,24,14.80
2014,07,13,03,25,14.80
2014,07,13,03,26,14.80
2014,07,13,03,27,14.80
2014,07,13,03,28,14.80
2014,07,13,03,29,14.80
2014,07,13,03,30,14.80
2014,07,13,03,31,14.80
2014,07,13,03,32,14.80
2014,07,13,03,33,14.80
2014,07,13,03,34,14.80
2014,07,13,03,35,14.80
2014,07,13,03,36,14.80
2014,07,13,03,37,14.70
2014,07,13,03,38,14.70
2014,07,13,03,39,14.70
2014,07,13,03,40,14.70
2014,07,13,03,41,14.70
2014,07,13,03,42,14.70
2014,07,13,03,43,14.70
2014,07,13,03,44,14.60
2014,07,13,03,45,14.60
2014,07,13,03,46,14.60
2014,07,13,03,47,14.60
2014,07,13,03,48,14.60
2014,07,13,03,49,14.60
2014,07,13,03,50,14.60
2014,07,13,03,51,14.60
2014,07,13,03,52,14.50
2014,07,13,03,53,14.50
2014,07,13,03,54,14.50
2014,07,13,03,55,14.50
2014,07,13,03,56,14.50
2014,07,13,03,57,14.40
2014,07,13,03,58,14.40
2014,07,13,03,59,14.40
2014,07,13,04,00,14.40
2014,07,13,04,01,14.40
2014,07,13,04,02,14.40
2014,07,13,04,03,14.40
2014,07,13,04,04,14.40
2014,07,13,04,05,14.40
2014,07,13,04,06,14.40
2014,07,13,04,07,14.30
2014,07,13,04,08,14.30
2014,07,13,04,09,14.30
2014,07,13,04,10,14.30
2014,07,13,04,11,14.30
2014,07,13,04,12,14.30
2014,07,13,04,13,14.30
2014,07,13,04,14,14.20
2014,07,13,04,15,14.20
2014,07,13,04,16,14.20
2014,07,13,04,17,14.20
2014,07,13,04,18,14.20
2014,07,13,04,19,14.20
2014,07,13,04,20,14.20
2014,07,13,04,21,14.10
2014,07,13,04,22,14.10
2014,07,13,04,24,14.10
2014,07,13,04,25,14.10
2014,07,13,04,26,14.10
2014,07,13,04,27,14.10
2014,07,13,04,28,14.10
2014,07,13,04,29,14.10
2014,07,13,04,30,14.10
2014,07,13,04,31,14.10
2014,07,13,04,32,14.10
2014,07,13,04,33,14.10
2014,07,13,04,34,14.10
2014,07,13,04,35,14.10
2014,07,13,04,36,14.10
2014,07,13,04,37,14.00
2014,07,13,04,38,14.10
2014,07,13,04,39,14.00
2014,07,13,04,40,14.00
2014,07,13,04,41,14.00
2014,07,13,04,42,14.00
2014,07,13,04,43,14.00
2014,07,13,04,44,14.00
2014,07,13,04,45,14.00
2014,07,13,04,46,14.00
2014,07,13,04,47,14.00
2014,07,13,04,48,14.00
2014,07,13,04,49,13.90
2014,07,13,04,50,13.90
2014,07,13,04,51,13.90
2014,07,13,04,52,13.90
2014,07,13,04,53,13.90
2014,07,13,04,54,13.90
2014,07,13,04,55,13.90
2014,07,13,04,56,13.90
2014,07,13,04,57,13.90
2014,07,13,04,58,13.90
2014,07,13,04,59,13.90
2014,07,13,05,00,13.90
2014,07,13,05,01,13.90
2014,07,13,05,02,13.90
2014,07,13,05,03,13.90
2014,07,13,05,04,13.80
2014,07,13,05,05,13.80
2014,07,13,05,06,13.80
2014,07,13,05,07,13.80
2014,07,13,05,08,13.80
2014,07,13,05,09,13.80
2014,07,13,05,10,13.80
2014,07,13,05,11,13.80
2014,07,13,05,12,13.80
2014,07,13,05,13,13.80
2014,07,13,05,14,13.70
2014,07,13,05,15,13.70
2014,07,13,05,16,13.70
2014,07,13,05,17,13.70
2014,07,13,05,18,13.70
2014,07,13,05,19,13.70
2014,07,13,05,20,13.70
2014,07,13,05,21,13.70
2014,07,13,05,22,13.70
2014,07,13,05,23,13.70
2014,07,13,05,24,13.70
2014,07,13,05,25,13.70
2014,07,13,05,26,13.70
2014,07,13,05,27,13.70
2014,07,13,05,28,13.60
2014,07,13,05,29,13.60
2014,07,13,05,30,13.60
2014,07,13,05,31,13.60
2014,07,13,05,32,13.60
2014,07,13,05,33,13.60
2014,07,13,05,34,13.60
2014,07,13,05,35,13.60
2014,07,13,05,36,13.60
2014,07,13,05,37,13.60
2014,07,13,05,38,13.60
2014,07,13,05,39,13.60
2014,07,13,05,40,13.60
2014,07,13,05,41,13.60
2014,07,13,05,42,13.60
2014,07,13,05,43,13.60
2014,07,13,05,44,13.60
2014,07,13,05,45,13.60
2014,07,13,05,46,13.60
2014,07,13,05,47,13.60
2014,07,13,05,48,13.60
2014,07,13,05,49,13.60
2014,07,13,05,50,13.60
2014,07,13,05,51,13.60
2014,07,13,05,52,13.60
2014,07,13,05,53,13.60
2014,07,13,05,54,13.60
2014,07,13,05,55,13.60
2014,07,13,05,56,13.60
2014,07,13,05,57,13.60
2014,07,13,05,58,13.60
2014,07,13,05,59,13.60
2014,07,13,06,00,13.60
2014,07,13,06,01,13.60
2014,07,13,06,02,13.60
2014,07,13,06,03,13.60
2014,07,13,06,04,13.60
2014,07,13,06,05,13.60
2014,07,13,06,06,13.60
2014,07,13,06,07,13.60
2014,07,13,06,08,13.60
2014,07,13,06,09,13.60
2014,07,13,06,10,13.60
2014,07,13,06,11,13.60
2014,07,13,06,12,13.60
2014,07,13,06,13,13.60
2014,07,13,06,14,13.60
2014,07,13,06,15,13.60
2014,07,13,06,16,13.60
2014,07,13,06,17,13.60
2014,07,13,06,18,13.60
2014,07,13,06,19,13.60
2014,07,13,06,20,13.70
2014,07,13,06,21,13.70
2014,07,13,06,22,13.70
2014,07,13,06,23,13.70
2014,07,13,06,24,13.70
2014,07,13,06,25,13.70
2014,07,13,06,26,13.70
2014,07,13,06,27,13.70
2014,07,13,06,28,13.70
2014,07,13,06,29,13.80
2014,07,13,06,30,13.80
2014,07,13,06,31,13.80
2014,07,13,06,32,13.90
2014,07,13,06,33,13.90
2014,07,13,06,34,14.00
2014,07,13,06,35,14.00
2014,07,13,06,36,14.10
2014,07,13,06,37,14.20
2014,07,13,06,38,14.20
2014,07,13,06,39,14.30
2014,07,13,06,40,14.40
2014,07,13,06,41,14.40
2014,07,13,06,42,14.50
2014,07,13,06,43,14.60
2014,07,13,06,44,14.60
2014,07,13,06,45,14.70
2014,07,13,06,46,14.80
2014,07,13,06,47,14.90
2014,07,13,06,48,15.00
2014,07,13,06,49,15.10
2014,07,13,06,50,15.10
2014,07,13,06,51,15.20
2014,07,13,06,52,15.30
2014,07,13,06,53,15.40
2014,07,13,06,54,15.50
2014,07,13,06,55,15.60
2014,07,13,06,56,15.70
2014,07,13,06,57,15.80
2014,07,13,06,58,15.80
2014,07,13,06,59,15.90
2014,07,13,07,00,16.00
2014,07,13,07,01,16.00
2014,07,13,07,02,16.10
2014,07,13,07,03,16.20
2014,07,13,07,04,16.20
2014,07,13,07,05,16.30
2014,07,13,07,06,16.30
2014,07,13,07,07,16.40
2014,07,13,07,08,16.40
2014,07,13,07,09,16.50
2014,07,13,07,10,16.60
2014,07,13,07,11,16.70
2014,07,13,07,12,16.70
2014,07,13,07,13,16.80
2014,07,13,07,14,16.90
2014,07,13,07,15,16.90
2014,07,13,07,16,17.00
2014,07,13,07,17,17.10
2014,07,13,07,18,17.20
2014,07,13,07,19,17.20
2014,07,13,07,20,17.30
2014,07,13,07,21,17.40
2014,07,13,07,22,17.50
2014,07,13,07,23,17.50
2014,07,13,07,24,17.60
2014,07,13,07,25,17.60
2014,07,13,07,26,17.60
2014,07,13,07,27,17.60
2014,07,13,07,28,17.60
2014,07,13,07,29,17.60
2014,07,13,07,30,17.60
2014,07,13,07,31,17.60
2014,07,13,07,32,17.70
2014,07,13,07,33,17.70
2014,07,13,07,34,17.80
2014,07,13,07,35,17.80
2014,07,13,07,36,17.80
2014,07,13,07,37,17.80
2014,07,13,07,38,17.80
2014,07,13,07,39,17.90
2014,07,13,07,40,17.90
2014,07,13,07,41,17.90
2014,07,13,07,42,18.00
2014,07,13,07,43,18.00
2014,07,13,07,44,18.10
2014,07,13,07,45,18.20
2014,07,13,07,46,18.20
2014,07,13,07,47,18.30
2014,07,13,07,48,18.40
2014,07,13,07,49,18.60
2014,07,13,07,50,18.70
2014,07,13,07,51,18.70
2014,07,13,07,52,18.80
2014,07,13,07,53,18.90
2014,07,13,07,54,18.90
2014,07,13,07,55,19.00
2014,07,13,07,56,19.00
2014,07,13,07,57,19.10
2014,07,13,07,58,19.20
2014,07,13,07,59,19.20
2014,07,13,08,00,19.30
2014,07,13,08,01,19.40
2014,07,13,08,02,19.40
2014,07,13,08,03,19.50
2014,07,13,08,04,19.60
2014,07,13,08,05,19.70
2014,07,13,08,06,19.80
2014,07,13,08,07,19.80
2014,07,13,08,08,19.90
2014,07,13,08,09,20.00
2014,07,13,08,10,20.10
2014,07,13,08,11,20.20
2014,07,13,08,12,20.30
2014,07,13,08,13,20.40
2014,07,13,08,14,20.50
2014,07,13,08,15,20.60
2014,07,13,08,16,20.80
2014,07,13,08,17,20.90
2014,07,13,08,18,21.00
2014,07,13,08,19,21.20
2014,07,13,08,20,21.30
2014,07,13,08,21,21.40
2014,07,13,08,22,21.50
2014,07,13,08,23,21.60
2014,07,13,08,24,21.70
2014,07,13,08,25,21.80
2014,07,13,08,26,21.90
2014,07,13,08,27,22.10
2014,07,13,08,28,22.30
2014,07,13,08,29,22.40
2014,07,13,08,30,22.60
2014,07,13,08,31,22.80
2014,07,13,08,32,22.90
2014,07,13,08,33,23.00
2014,07,13,08,34,23.10
2014,07,13,08,35,23.30
2014,07,13,08,36,23.40
2014,07,13,08,37,23.60
2014,07,13,08,38,23.70
2014,07,13,08,39,23.90
2014,07,13,08,40,24.00
2014,07,13,08,41,24.10
2014,07,13,08,42,24.20
2014,07,13,08,43,24.30
2014,07,13,08,44,24.30
2014,07,13,08,45,24.40
2014,07,13,08,46,24.40
2014,07,13,08,47,24.50
2014,07,13,08,48,24.50
2014,07,13,08,49,24.60
2014,07,13,08,50,24.70
2014,07,13,08,51,24.80
2014,07,13,08,52,24.80
2014,07,13,08,53,24.80
2014,07,13,08,54,24.80
2014,07,13,08,55,24.80
2014,07,13,08,56,24.80
2014,07,13,08,57,24.90
2014,07,13,08,58,24.90
2014,07,13,08,59,25.00
2014,07,13,09,00,25.00
2014,07,13,09,01,25.10
2014,07,13,09,02,25.20
2014,07,13,09,03,25.20
2014,07,13,09,04,25.20
2014,07,13,09,05,25.20
2014,07,13,09,06,25.10
2014,07,13,09,07,25.10
2014,07,13,09,08,25.10
2014,07,13,09,09,25.10
2014,07,13,09,10,25.10
2014,07,13,09,11,25.20
2014,07,13,09,12,25.20
2014,07,13,09,13,25.20
2014,07,13,09,14,25.20
2014,07,13,09,15,25.30
2014,07,13,09,16,25.30
2014,07,13,09,17,25.30
2014,07,13,09,18,25.30
2014,07,13,09,19,25.30
2014,07,13,09,20,25.30
2014,07,13,09,21,25.30
2014,07,13,09,22,25.20
2014,07,13,09,23,25.20
2014,07,13,09,24,25.20
2014,07,13,09,25,25.30
2014,07,13,09,26,25.40
2014,07,13,09,27,25.50
2014,07,13,09,28,25.70
2014,07,13,09,29,25.80
2014,07,13,09,30,25.90
2014,07,13,09,31,26.00
2014,07,13,09,32,26.10
2014,07,13,09,33,26.20
2014,07,13,09,34,26.30
2014,07,13,09,35,26.40
2014,07,13,09,36,26.50
2014,07,13,09,37,26.60
2014,07,13,09,38,26.80
2014,07,13,09,39,26.90
2014,07,13,09,40,27.00
2014,07,13,09,41,27.10
2014,07,13,09,42,27.10
2014,07,13,09,43,27.10
2014,07,13,09,44,27.20
2014,07,13,09,45,27.20
2014,07,13,09,46,27.20
2014,07,13,09,47,27.20
2014,07,13,09,48,27.30
2014,07,13,09,49,27.30
2014,07,13,09,50,27.40
2014,07,13,09,51,27.50
2014,07,13,09,52,27.50
2014,07,13,09,53,27.60
2014,07,13,09,54,27.50
2014,07,13,09,55,27.50
2014,07,13,09,56,27.40
2014,07,13,09,57,27.30
2014,07,13,09,58,27.30
2014,07,13,09,59,27.30
2014,07,13,10,00,27.30
2014,07,13,10,01,27.20
2014,07,13,10,02,27.10
2014,07,13,10,03,27.10
2014,07,13,10,04,27.20
2014,07,13,10,05,27.30
2014,07,13,10,06,27.40
2014,07,13,10,07,27.60
2014,07,13,10,08,27.70
2014,07,13,10,09,27.80
2014,07,13,10,10,27.90
2014,07,13,10,11,28.00
2014,07,13,10,12,28.00
2014,07,13,10,13,28.10
2014,07,13,10,14,28.10
2014,07,13,10,15,28.10
2014,07,13,10,16,28.10
2014,07,13,10,17,28.10
2014,07,13,10,18,28.20
2014,07,13,10,19,28.20
2014,07,13,10,20,28.30
2014,07,13,10,21,28.40
2014,07,13,10,22,28.50
2014,07,13,10,23,28.50
2014,07,13,10,24,28.60
2014,07,13,10,25,28.60
2014,07,13,10,26,28.60
2014,07,13,10,27,28.60
2014,07,13,10,28,28.60
2014,07,13,10,29,28.60
2014,07,13,10,30,28.60
2014,07,13,10,31,28.70
2014,07,13,10,32,28.70
2014,07,13,10,33,28.70
2014,07,13,10,34,28.70
2014,07,13,10,35,28.70
2014,07,13,10,36,28.70
2014,07,13,10,37,28.70
2014,07,13,10,38,28.70
2014,07,13,10,39,28.60
2014,07,13,10,40,28.60
2014,07,13,10,41,28.60
2014,07,13,10,42,28.60
2014,07,13,10,43,28.50
2014,07,13,10,44,28.50
2014,07,13,10,45,28.40
2014,07,13,10,46,28.40
2014,07,13,10,47,28.40
2014,07,13,10,48,28.30
2014,07,13,10,49,28.30
2014,07,13,10,50,28.30
2014,07,13,10,51,28.40
2014,07,13,10,52,28.40
2014,07,13,10,53,28.50
2014,07,13,10,54,28.50
2014,07,13,10,55,28.50
2014,07,13,10,56,28.40
2014,07,13,10,57,28.50
2014,07,13,10,58,28.50
2014,07,13,10,59,28.50
2014,07,13,11,00,28.40
2014,07,13,11,01,28.40
2014,07,13,11,02,28.20
2014,07,13,11,03,28.10
2014,07,13,11,04,28.10
2014,07,13,11,05,28.00
2014,07,13,11,06,28.00
2014,07,13,11,07,28.00
2014,07,13,11,08,28.10
2014,07,13,11,09,28.00
2014,07,13,11,10,28.00
2014,07,13,11,11,28.00
2014,07,13,11,12,27.90
2014,07,13,11,13,27.90
2014,07,13,11,14,27.90
2014,07,13,11,15,28.00
2014,07,13,11,16,28.00
2014,07,13,11,17,28.10
2014,07,13,11,18,28.10
2014,07,13,11,19,28.10
2014,07,13,11,20,28.10
2014,07,13,11,21,28.10
2014,07,13,11,22,28.10
2014,07,13,11,23,28.00
2014,07,13,11,24,28.00
2014,07,13,11,25,28.00
2014,07,13,11,26,28.10
2014,07,13,11,27,28.10
2014,07,13,11,28,28.20
2014,07,13,11,29,28.30
2014,07,13,11,30,28.30
2014,07,13,11,31,28.30
2014,07,13,11,32,28.30
2014,07,13,11,33,28.30
2014,07,13,11,34,28.20
2014,07,13,11,35,28.20
2014,07,13,11,36,28.20
2014,07,13,11,37,28.20
2014,07,13,11,38,28.20
2014,07,13,11,39,28.20
2014,07,13,11,40,28.20
2014,07,13,11,41,28.30
2014,07,13,11,42,28.30
2014,07,13,11,43,28.40
2014,07,13,11,44,28.40
2014,07,13,11,45,28.40
2014,07,13,11,46,28.30
2014,07,13,11,47,28.30
2014,07,13,11,48,28.30
2014,07,13,11,49,28.30
2014,07,13,11,50,28.30
2014,07,13,11,51,28.30
2014,07,13,11,52,28.40
2014,07,13,11,53,28.40
2014,07,13,11,54,28.40
2014,07,13,11,55,28.40
2014,07,13,11,56,28.40
2014,07,13,11,57,28.40
2014,07,13,11,58,28.40
2014,07,13,11,59,28.30
2014,07,13,12,00,28.20
2014,07,13,12,01,28.20
2014,07,13,12,02,28.10
2014,07,13,12,03,28.10
2014,07,13,12,04,28.00
2014,07,13,12,05,27.90
2014,07,13,12,06,27.80
2014,07,13,12,07,27.70
2014,07,13,12,08,27.60
2014,07,13,12,09,27.60
2014,07,13,12,10,27.60
2014,07,13,12,11,27.60
2014,07,13,12,12,27.60
2014,07,13,12,13,27.60
2014,07,13,12,14,27.60
2014,07,13,12,15,27.70
2014,07,13,12,16,27.70
2014,07,13,12,17,27.70
2014,07,13,12,18,27.70
2014,07,13,12,19,27.80
2014,07,13,12,20,27.80
2014,07,13,12,21,27.80
2014,07,13,12,22,27.80
2014,07,13,12,23,27.90
2014,07,13,12,24,28.00
2014,07,13,12,25,28.10
2014,07,13,12,26,28.20
2014,07,13,12,27,28.30
2014,07,13,12,28,28.40
2014,07,13,12,29,28.50
2014,07,13,12,30,28.60
2014,07,13,12,31,28.60
2014,07,13,12,32,28.60
2014,07,13,12,33,28.60
2014,07,13,12,34,28.30
2014,07,13,12,35,28.00
2014,07,13,12,36,27.70
2014,07,13,12,37,27.40
2014,07,13,12,38,27.20
2014,07,13,12,39,27.10
2014,07,13,12,40,27.10
2014,07,13,12,41,27.10
2014,07,13,12,42,27.10
2014,07,13,12,43,27.10
2014,07,13,12,44,27.20
2014,07,13,12,45,27.20
2014,07,13,12,46,27.30
2014,07,13,12,47,27.40
2014,07,13,12,48,27.50
2014,07,13,12,49,27.60
2014,07,13,12,50,27.80
2014,07,13,12,51,27.80
2014,07,13,12,52,27.90
2014,07,13,12,53,27.90
2014,07,13,12,54,28.00
2014,07,13,12,55,28.10
2014,07,13,12,56,28.30
2014,07,13,12,57,28.40
2014,07,13,12,58,28.50
2014,07,13,12,59,28.70
2014,07,13,13,00,28.80
2014,07,13,13,01,29.00
2014,07,13,13,02,29.20
2014,07,13,13,03,29.40
2014,07,13,13,04,29.50
2014,07,13,13,05,29.70
2014,07,13,13,06,29.90
2014,07,13,13,07,30.10
2014,07,13,13,08,30.30
2014,07,13,13,09,30.40
2014,07,13,13,10,30.60
2014,07,13,13,11,30.70
2014,07,13,13,12,30.80
2014,07,13,13,13,30.90
2014,07,13,13,14,31.00
2014,07,13,13,15,31.00
2014,07,13,13,16,31.00
2014,07,13,13,17,30.90
2014,07,13,13,18,30.80
2014,07,13,13,19,30.70
2014,07,13,13,20,30.60
2014,07,13,13,21,30.60
2014,07,13,13,22,30.50
2014,07,13,13,23,30.50
2014,07,13,13,24,30.50
2014,07,13,13,25,30.50
2014,07,13,13,26,30.40
2014,07,13,13,27,30.30
2014,07,13,13,28,30.30
2014,07,13,13,29,30.30
2014,07,13,13,30,30.20
2014,07,13,13,31,30.20
2014,07,13,13,32,30.10
2014,07,13,13,33,30.00
2014,07,13,13,34,30.00
2014,07,13,13,35,30.00
2014,07,13,13,36,30.00
2014,07,13,13,37,30.00
2014,07,13,13,38,30.00
2014,07,13,13,39,30.00
2014,07,13,13,40,29.90
2014,07,13,13,41,29.90
2014,07,13,13,42,29.80
2014,07,13,13,43,29.80
2014,07,13,13,44,29.90
2014,07,13,13,45,30.00
2014,07,13,13,46,30.10
2014,07,13,13,47,30.20
2014,07,13,13,48,30.30
2014,07,13,13,49,30.30
2014,07,13,13,50,30.40
2014,07,13,13,51,30.50
2014,07,13,13,52,30.50
2014,07,13,13,53,30.60
2014,07,13,13,54,30.60
2014,07,13,13,55,30.60
2014,07,13,13,56,30.60
2014,07,13,13,57,30.60
2014,07,13,13,58,30.70
2014,07,13,13,59,30.70
2014,07,13,14,00,30.80
2014,07,13,14,01,30.90
2014,07,13,14,02,30.90
2014,07,13,14,03,31.00
2014,07,13,14,04,31.00
2014,07,13,14,05,31.00
2014,07,13,14,06,30.90
2014,07,13,14,07,30.90
2014,07,13,14,08,30.80
2014,07,13,14,09,30.80
2014,07,13,14,10,30.80
2014,07,13,14,11,30.90
2014,07,13,14,12,31.00
2014,07,13,14,13,31.10
2014,07,13,14,14,31.10
2014,07,13,14,15,31.30
2014,07,13,14,16,31.30
2014,07,13,14,17,31.30
2014,07,13,14,18,31.40
2014,07,13,14,19,31.40
2014,07,13,14,20,31.40
2014,07,13,14,21,31.30
2014,07,13,14,22,31.20
2014,07,13,14,23,31.10
2014,07,13,14,24,31.10
2014,07,13,14,25,31.00
2014,07,13,14,26,30.90
2014,07,13,14,27,30.80
2014,07,13,14,28,30.80
2014,07,13,14,29,30.80
2014,07,13,14,30,30.70
2014,07,13,14,31,30.70
2014,07,13,14,32,30.60
2014,07,13,14,33,30.60
2014,07,13,14,34,30.60
2014,07,13,14,35,30.60
2014,07,13,14,36,30.60
2014,07,13,14,37,30.70
2014,07,13,14,38,30.70
2014,07,13,14,39,30.70
2014,07,13,14,40,30.70
2014,07,13,14,41,30.70
2014,07,13,14,42,30.70
2014,07,13,14,43,30.70
2014,07,13,14,44,30.70
2014,07,13,14,45,30.80
2014,07,13,14,46,30.80
2014,07,13,14,47,30.80
2014,07,13,14,48,30.80
2014,07,13,14,49,30.80
2014,07,13,14,50,30.90
2014,07,13,14,51,30.90
2014,07,13,14,52,30.90
2014,07,13,14,53,30.90
2014,07,13,14,54,30.90
2014,07,13,14,55,30.90
2014,07,13,14,56,30.90
2014,07,13,14,57,31.00
2014,07,13,14,58,31.10
2014,07,13,14,59,31.30
2014,07,13,15,00,31.40
2014,07,13,15,01,31.40
2014,07,13,15,02,31.50
2014,07,13,15,03,31.60
2014,07,13,15,04,31.60
2014,07,13,15,05,31.70
2014,07,13,15,06,31.70
2014,07,13,15,07,31.70
2014,07,13,15,08,31.70
2014,07,13,15,09,31.70
2014,07,13,15,10,31.70
2014,07,13,15,11,31.70
2014,07,13,15,12,31.80
2014,07,13,15,13,31.80
2014,07,13,15,14,31.80
2014,07,13,15,15,31.80
2014,07,13,15,16,31.70
2014,07,13,15,17,31.80
2014,07,13,15,18,31.80
2014,07,13,15,19,31.80
2014,07,13,15,20,31.80
2014,07,13,15,21,31.80
2014,07,13,15,22,31.80
2014,07,13,15,23,31.80
2014,07,13,15,24,31.70
2014,07,13,15,25,31.70
2014,07,13,15,26,31.70
2014,07,13,15,27,31.70
2014,07,13,15,28,31.70
2014,07,13,15,29,31.70
2014,07,13,15,30,31.60
2014,07,13,15,31,31.40
2014,07,13,15,32,31.30
2014,07,13,15,33,31.20
2014,07,13,15,34,31.10
2014,07,13,15,35,31.00
2014,07,13,15,36,31.00
2014,07,13,15,37,30.80
2014,07,13,15,38,30.70
2014,07,13,15,39,30.70
2014,07,13,15,40,30.60
2014,07,13,15,41,30.50
2014,07,13,15,42,30.30
2014,07,13,15,43,30.20
2014,07,13,15,44,30.10
2014,07,13,15,45,30.00
2014,07,13,15,46,29.90
2014,07,13,15,47,29.90
2014,07,13,15,48,29.80
2014,07,13,15,49,29.70
2014,07,13,15,50,29.60
2014,07,13,15,51,29.50
2014,07,13,15,52,29.40
2014,07,13,15,53,29.30
2014,07,13,15,54,29.20
2014,07,13,15,55,29.20
2014,07,13,15,56,29.00
2014,07,13,15,57,28.90
2014,07,13,15,58,28.80
2014,07,13,15,59,28.80
2014,07,13,16,00,28.70
2014,07,13,16,01,28.60
2014,07,13,16,02,28.60
2014,07,13,16,03,28.60
2014,07,13,16,04,28.60
2014,07,13,16,05,28.60
2014,07,13,16,06,28.60
2014,07,13,16,07,28.60
2014,07,13,16,08,28.60
2014,07,13,16,09,28.70
2014,07,13,16,10,28.70
2014,07,13,16,11,28.80
2014,07,13,16,12,28.90
2014,07,13,16,13,28.90
2014,07,13,16,14,29.00
2014,07,13,16,15,29.10
2014,07,13,16,16,29.10
2014,07,13,16,17,29.10
2014,07,13,16,18,29.10
2014,07,13,16,19,29.10
2014,07,13,16,20,29.10
2014,07,13,16,21,29.10
2014,07,13,16,22,29.20
2014,07,13,16,23,29.20
2014,07,13,16,24,29.10
2014,07,13,16,25,29.00
2014,07,13,16,26,29.00
2014,07,13,16,27,28.90
2014,07,13,16,28,28.90
2014,07,13,16,29,28.90
2014,07,13,16,30,28.80
2014,07,13,16,31,28.80
2014,07,13,16,32,28.80
2014,07,13,16,33,28.80
2014,07,13,16,34,28.80
2014,07,13,16,35,28.80
2014,07,13,16,36,28.80
2014,07,13,16,37,28.70
2014,07,13,16,38,28.70
2014,07,13,16,39,28.70
2014,07,13,16,40,28.70
2014,07,13,16,41,28.70
2014,07,13,16,42,28.70
2014,07,13,16,43,28.70
2014,07,13,16,44,28.70
2014,07,13,16,45,28.70
2014,07,13,16,46,28.70
2014,07,13,16,47,28.80
2014,07,13,16,48,28.80
2014,07,13,16,49,28.90
2014,07,13,16,50,29.00
2014,07,13,16,51,29.10
2014,07,13,16,52,29.20
2014,07,13,16,53,29.30
2014,07,13,16,54,29.40
2014,07,13,16,55,29.50
2014,07,13,16,56,29.50
2014,07,13,16,57,29.60
2014,07,13,16,58,29.60
2014,07,13,16,59,29.60
2014,07,13,17,00,29.60
2014,07,13,17,01,29.60
2014,07,13,17,02,29.60
2014,07,13,17,03,29.60
2014,07,13,17,04,29.70
2014,07,13,17,05,29.70
2014,07,13,17,06,29.70
2014,07,13,17,07,29.70
2014,07,13,17,08,29.70
2014,07,13,17,09,29.70
2014,07,13,17,10,29.60
2014,07,13,17,11,29.60
2014,07,13,17,12,29.60
2014,07,13,17,13,29.50
2014,07,13,17,14,29.50
2014,07,13,17,15,29.50
2014,07,13,17,16,29.40
2014,07,13,17,17,29.40
2014,07,13,17,18,29.40
2014,07,13,17,19,29.40
2014,07,13,17,20,29.30